Regional Weather Roundup
Issued by NWS Portland, ME

Current Version | Previous Version | Text Only | Print | Product List | Glossary Off
Versions: 1 2 3 4 5 6 7 8 9 10 11 12 13 14 15 16 17 18 19 20 21 22 23 24 25 26 27 28 29 30 31 32 33 34 35 36 37 38 39 40 41 42 43 44 45 46 47 48 49 50
000 ASUS41 KGYX 240305 RWRGYX WEATHER ROUNDUP FOR MAINE AND NEW HAMPSHIRE NATIONAL WEATHER SERVICE GRAY ME 1000 PM EST WED JAN 23 2019 MEZ002-005-006-010-012-015-018-020-021-024-026-027-029-240400- MAINE CITY SKY/WX TMP DP RH WIND PRES REMARKS PORTLAND CLOUDY 40 30 67 S10G22 29.92F SANFORD LGT RAIN 38 30 73 SW10G18 29.91F BAR HARBOR CLOUDY 39 34 82 SW13G18 29.93F WISCASSET CLOUDY 39 31 72 MISG 29.93F ROCKLAND CLOUDY 41 33 73 SW12G22 29.92F FRYEBURG MIX PCPN 30 28 92 CALM 29.89F LEWISTONAUBURN CLOUDY 30 20 66 CALM 29.90F AUGUSTA CLOUDY 31 24 75 S3 29.89F WATERVILLE CLOUDY 28 22 78 MISG 29.86F BANGOR CLOUDY 23 20 88 CALM 29.91F GREENVILLE N/A 19 10 68 SE8 29.78F MILLINOCKET MIX PCPN 18 15 88 S3 29.90F HOULTON LGT SNOW 20 18 92 CALM 29.88F VSB 1 PRESQUE ISLE LGT SNOW 17 14 88 CALM 29.88F FOG FRENCHVILLE LGT SNOW 14 9 80 E7 29.82F CARIBOU LGT SNOW 16 12 84 E5 29.86F FOG $$ NHZ002-005-008-009-011-012-014-240400- NEW HAMPSHIRE CITY SKY/WX TMP DP RH WIND PRES REMARKS PORTSMOUTH LGT RAIN 41 32 70 SW9 29.92F ROCHESTER CLOUDY 38 31 76 S5 29.92F NASHUA CLOUDY 40 31 70 CALM 29.95F MANCHESTER CLOUDY 40 29 64 S10 29.92F CONCORD CLOUDY 37 31 78 SE6 29.92F LACONIA MIX PCPN 28 26 92 CALM 29.91F PLYMOUTH MIX PCPN 27 25 92 CALM 29.92S BERLIN FRZ RAIN 24 21 88 CALM 29.82F WHITEFIELD FRZ RAIN 26 23 88 CALM 29.82F JAFFREY CLOUDY 37 31 78 S13 29.90F KEENE LGT RAIN 36 32 85 CALM 29.92F LEBANON LGT RAIN 36 31 82 SW7 29.86F MT WASHINGTON NOT AVBL $$ VTZ005-007-008-240400- VERMONT CITY SKY/WX TMP DP RH WIND PRES REMARKS ST JOHNSBURY N/A 32 31 96 MISG 29.81F MONTPELIER LGT RAIN 33 32 96 S7 29.83F BURLINGTON CLOUDY 38 32 79 S28G40 29.76F $$ MAZ007-012-024-CTZ003-RIZ002-NYZ038-NYZ072-240400- SOUTHERN NEW ENGLAND AND NY CITY SKY/WX TMP DP RH WIND PRES REMARKS BOSTON CLOUDY 46 38 73 S15 29.97F WORCESTER CLOUDY 42 38 85 SW23G37 29.92F NANTUCKET CLOUDY 44 42 93 S18 30.07F PROVIDENCE CLOUDY 46 44 93 S16 30.00F HARTFORD CLOUDY 37 33 85 S7 29.97F ALBANY LGT RAIN 38 30 73 S15 29.88F NEW YORK CITY MOCLDY 45 39 79 S6 29.98S $$ ANZ081-ANZ082-ANZ150-NHZ014-MEZ023>029-240400- COASTAL MARINE OBSERVATIONS STATION/POSITION TIME TEMP WIND PRES WAVE AIR SEA DIR/SP/G HT/PER (UTC) (F) (DEG/KT/KT) (MB) (FT/S) MOUNT DESERT ROC 0200 40 200/ 18/ 20 1014.8F MATINICUS ROCK 0200 42 230/ 23/ 25 1014.1F ISLE OF SHOALS 0200 41 220/ 18/ 19 1014.4F JEFFREYS LEDGE 0238 42 N/A 5/ 5 CASHES LEDGE BUO 0250 44 40 1014.3F 8/ 7 $$ .............KEY.............. WCI - WIND CHILL TC - TEMPERATURE IN CELSIUS VSB - VISIBILITY IN MILES HX - HEAT INDEX FAIR- INDICATES FEW OR NO CLOUDS BELOW 12,000 FT, WITH NO SIGNIFICANT WEATHER AND/OR OBSTRUCTIONS TO VISIBILITY.

USA.gov is the U.S. government's official web portal to all federal, state and local government web resources and services.